Weather History for KHEI - May, 2013

Change the Weather History Date:

Friday, May 10, 2013

  Actual Average Record
Temperature  
Mean Temperature 51 °F -  
Max Temperature 75 °F 64 °F 79 °F (2012)
Min Temperature 26 °F 37 °F 19 °F (2002)
Degree Days  
Heating Degree Days 11    
Cooling Degree Days 0 0  
Month to date cooling degree days 0 0  
Year to date cooling degree days 0 0  
Growing Degree Days 4 (Base 50)    
Moisture  
Dew Point 26 °F    
Average Humidity 41    
Maximum Humidity 64    
Minimum Humidity 22    
Precipitation  
Precipitation 0.00 in 0.08 in 0.87 in (1998)
Month to date precipitation T 0.72  
Year to date precipitation 1.23 3.68  
Sea Level Pressure  
Sea Level Pressure 30.17 in    
Wind  
Wind Speed 11 mph (NW)    
Max Wind Speed 33 mph    
Max Gust Speed 43 mph    
Visibility 10 miles    
Events      
T = Trace of Precipitation, MM = Missing Value Source: NWS Daily Summary

Daily Weather History Graph

Daily Weather History Graph

Search for Another Location

Airport or City:

Trip Planner

Search our weather history database for the weather conditions in past years. The results will help you decide how hot, cold, wet, or windy it might be!

Date:

Astronomy

May. 10, 2013 Rise Set
Actual Time 5:24 AM MDT 8:10 PM MDT
Civil Twilight 4:49 AM MDT 8:45 PM MDT
Nautical Twilight 4:06 AM MDT 9:28 PM MDT
Astronomical Twilight 3:15 AM MDT 10:20 PM MDT
Moon 5:49 AM MDT (5/10) 9:03 PM MDT (5/10)
Length of Visible Light 15h 55m
Length of Day
14h 46m
New Moon, 1% of the Moon is Illuminated
May 10
New Moon
May 17
First Quarter
May 24
Full
May 31
Last Quarter
Jun 8
New

Hourly Weather History & Observations

Time (MDT) Temp. Windchill Dew Point Humidity Pressure Visibility Wind Dir Wind Speed Gust Speed Precip Events Conditions
12:53 AM 41.0 °F 36.4 °F 21.9 °F 47% 30.19 in 10.0 mi SE 6.9 mph - N/A   Clear
1:53 AM 36.0 °F 32.1 °F 23.0 °F 59% 30.17 in 10.0 mi SSE 4.6 mph - N/A   Clear
2:53 AM 34.0 °F 31.0 °F 23.0 °F 64% 30.17 in 10.0 mi SE 3.5 mph - N/A   Clear
3:53 AM 35.1 °F - 23.0 °F 61% 30.15 in 10.0 mi Calm Calm - N/A   Clear
4:53 AM 35.1 °F - 23.0 °F 61% 30.14 in 10.0 mi Calm Calm - N/A   Clear
5:53 AM 33.1 °F - 23.0 °F 66% 30.13 in 10.0 mi Calm Calm - N/A   Clear
6:53 AM 45.0 °F 43.5 °F 26.1 °F 48% 30.11 in 10.0 mi South 3.5 mph - N/A   Clear
7:53 AM 52.0 °F - 27.0 °F 38% 30.10 in 10.0 mi SW 5.8 mph - N/A   Clear
8:53 AM 59.0 °F - 34.0 °F 39% 30.09 in 10.0 mi WSW 9.2 mph - N/A   Clear
9:53 AM 66.0 °F - 39.9 °F 38% 30.07 in 10.0 mi West 12.7 mph - N/A   Clear
11:53 AM 73.9 °F - 32.0 °F 21% 30.06 in 10.0 mi North 18.4 mph 31.1 mph N/A   Clear
12:53 PM 75.0 °F - 37.0 °F 25% 30.07 in 10.0 mi NNW 27.6 mph 36.8 mph N/A   Scattered Clouds
1:53 PM 72.0 °F - 35.1 °F 26% 30.11 in 10.0 mi NNW 23.0 mph 36.8 mph N/A   Clear
2:53 PM 62.1 °F - 35.1 °F 37% 30.18 in 10.0 mi NNW 23.0 mph 32.2 mph N/A   Mostly Cloudy
3:53 PM 66.0 °F - 30.0 °F 26% 30.16 in 10.0 mi North 17.3 mph 29.9 mph N/A   Clear
4:53 PM 64.0 °F - 26.1 °F 24% 30.18 in 10.0 mi NNW 23.0 mph 33.4 mph N/A   Clear
5:53 PM 62.1 °F - 24.1 °F 23% 30.20 in 10.0 mi NNW 20.7 mph 27.6 mph N/A   Mostly Cloudy
6:53 PM 57.9 °F - 21.0 °F 24% 30.21 in 10.0 mi NNW 20.7 mph 26.5 mph N/A   Partly Cloudy
7:53 PM 54.0 °F - 19.9 °F 26% 30.25 in 10.0 mi North 13.8 mph - N/A   Clear
8:53 PM 44.1 °F 39.5 °F 19.9 °F 38% 30.28 in 10.0 mi NNW 8.1 mph - N/A   Clear
9:53 PM 43.0 °F 37.7 °F 19.9 °F 40% 30.30 in 10.0 mi North 9.2 mph - N/A   Clear
10:53 PM 34.0 °F - 18.0 °F 52% 30.33 in 10.0 mi Calm Calm - N/A   Clear
11:53 PM 30.0 °F 24.1 °F 18.0 °F 61% 30.35 in 10.0 mi West 5.8 mph - N/A   Clear